Find Starlink 37027

NORAD ID: 68232 Int'l Des: 2026-054 Owner: SPXS Country: US Constellation: starlink operational
LEOCIRCULAR

Live Position

Loading 3D Globe...

About Starlink 37027

Description loading...

Upcoming Passes

Passes for default location (London). Set your location on the main map for personalized predictions.

Altitude History

Loading altitude history...

Two-Line Element Set

1 68232U 26054A 26121.78908240 .00388762 00000-0 24071-2 0 9998
2 68232 53.1594 47.9481 0001292 157.1887 202.9191 15.75413119 7158
Epoch: May 1, 2026 • Age: 15 hours

Current Status

Altitude 349.6 km
Velocity 7.70 km/s
Sub-Earth Point -23.42°S, 15.12°E
Launch Date Mar 17, 2026
Age 0.1 years
Type internet

Technical Details

Classification Payload
Mass 575.00 kg
Dry Mass 530.00 kg
Total Mass 575.00 kg
Length 0.30 m
Diameter 4.10 m
Span 29.00 m
Shape Box + pan
Manufacturer SPXS
Bus Type Starlink V2MO
Phase Status In Orbit
Owner/State SPXS/US

Most Searched